Regional Weather Roundup
Issued by NWS

Home | Current Version | Previous Version | Text Only | Print | Product List | Glossary On
Versions: 1 2 3 4 5 6 7 8 9 10 11 12 13 14 15 16 17 18 19 20 21 22 23 24 25 26 27 28 29 30 31 32 33 34 35 36 37 38 39 40 41 42 43 44 45 46 47 48 49 50
000
ASCA42 TJSJ 202111
RWRPR
PUERTO RICO/U.S. VIRGIN ISLANDS HOURLY WEATHER ROUNDUP
NATIONAL WEATHER SERVICE SAN JUAN PR
500 PM AST SAT SEP 20 2014

PRZ001-004-202200-
PUERTO RICO

CITY           SKY/WX    TMP DP  RH WIND       PRES   REMARKS
SAN JUAN LMM   MOSUNNY   84  75  74 E5        29.93S HX  92
AGUADILLA      SUNNY     84  73  70 E10       29.94S HX  91
CEIBA          SUNNY     84  73  70 E10       29.96S HX  91
$$

PRZ006-007-202200-
U.S. VIRGIN ISLANDS

CITY           SKY/WX    TMP DP  RH WIND       PRES   REMARKS
CHRISTIANSTED  MOSUNNY   84  73  70 E14       29.94  HX  91
$$

HOURLY WEATHER ROUNDUP FOR THE NEWS MEDIA

CITY           SKY/WX    TMP DP  RH WIND       PRES   REMARKS
MIAMI          CLOUDY    77  72  84 N7        29.92R
ORLANDO        MOSUNNY   83  68  60 NW6       29.88S
NEW YORK       PTSUNNY   74  59  59 S17       30.17F
NEWARK         PTSUNNY   73  60  63 S12G21    30.15F
CHICAGO        LGT RAIN  73  67  81 W8G22     29.80F
HARTFORD       MOSUNNY   69  54  58 S14       30.19F
BOSTON         PTSUNNY   69  53  56 S15       30.16S
DALLAS         PTSUNNY   91  62  37 SE10      29.95F HX  91
PHILADELPHIA   MOSUNNY   78  60  53 SE12      30.13F


USA.gov is the U.S. government's official web portal to all federal, state and local government web resources and services.